Change the Weather History Date:

Saturday, March 23, 2013

  Actual Average (KTOL) Record (KTOL)
Temperature  
Mean Temperature 30 °F 40 °F  
Max Temperature 40 °F 50 °F 73 °F (1988)
Min Temperature 21 °F 31 °F 5 °F (1888)
Degree Days  
Heating Degree Days 34 25  
Month to date heating degree days 666  
Since 1 July heating degree days 5242  
Cooling Degree Days 0 0  
Month to date cooling degree days 0  
Year to date cooling degree days 0  
Moisture  
Dew Point 22 °F    
Average Humidity 70    
Maximum Humidity 87    
Minimum Humidity 47    
Precipitation  
Precipitation 0.00 in 0.08 in 0.75 in (1993)
Month to date precipitation 1.77  
Year to date precipitation 5.89  
Snow  
Snow 0.00 in 0.10 in - ()
Month to date snowfall 4.7  
Since 1 July snowfall 35.2  
Snow Depth -    
Sea Level Pressure  
Sea Level Pressure 30.05 in    
Wind  
Wind Speed 2 mph (NW)    
Max Wind Speed 8 mph    
Max Gust Speed -    
Visibility 10 miles    
Events      
T = Trace of Precipitation, MM = Missing Value Source: NWS Daily Summary

Daily Weather History Graph

Daily Weather History Graph

Search for Another Location

Airport or City:

Trip Planner

Search our weather history database for the weather conditions in past years. The results will help you decide how hot, cold, wet, or windy it might be!

Date:

Astronomy

Mar. 23, 2013 Rise Set
Actual Time 7:32 AM EDT 7:50 PM EDT
Civil Twilight 7:04 AM EDT 8:18 PM EDT
Nautical Twilight 6:32 AM EDT 8:50 PM EDT
Astronomical Twilight 5:58 AM EDT 9:24 PM EDT
Moon 4:13 PM EDT (3/23) 5:11 AM EDT (3/23)
Length of Visible Light 13h 13m
Length of Day
12h 18m
Waxing Gibbous, 85% of the Moon is Illuminated
Mar 23
Waxing Gibbous
Mar 27
Full
Apr 3
Last Quarter
Apr 10
New
Apr 18
First Quarter

Hourly Weather History & Observations

Time (EDT) Temp. Windchill Dew Point Humidity Pressure Visibility Wind Dir Wind Speed Gust Speed Precip Events Conditions
12:35 AM 27.0 °F 23.0 °F 22.8 °F 84% 30.03 in 10.0 mi West 3.5 mph - N/A   Clear
12:55 AM 28.0 °F 24.2 °F 23.4 °F 83% 30.03 in 10.0 mi West 3.5 mph - N/A   Clear
1:15 AM 26.8 °F - 21.7 °F 81% 30.03 in 10.0 mi Calm Calm - N/A   Clear
1:35 AM 25.7 °F - 21.6 °F 84% 30.03 in 10.0 mi Calm Calm - N/A   Clear
1:55 AM 26.2 °F - 21.6 °F 82% 30.03 in 10.0 mi Calm Calm - N/A   Clear
2:15 AM 24.6 °F - 20.7 °F 85% 30.03 in 10.0 mi Calm Calm - N/A   Clear
2:35 AM 24.8 °F - 21.6 °F 87% 30.03 in 10.0 mi Calm Calm - N/A   Clear
2:55 AM 24.1 °F - 20.3 °F 85% 30.02 in 10.0 mi Calm Calm - N/A   Clear
3:15 AM 24.3 °F - 20.7 °F 86% 30.02 in 10.0 mi Calm Calm - N/A   Clear
3:35 AM 25.3 °F - 21.7 °F 86% 30.03 in 10.0 mi Calm Calm - N/A   Clear
3:55 AM 24.6 °F - 20.5 °F 84% 30.02 in 10.0 mi Calm Calm - N/A   Clear
4:15 AM 25.5 °F 21.3 °F 21.0 °F 83% 30.02 in 10.0 mi West 3.5 mph - N/A   Clear
4:35 AM 24.4 °F - 20.1 °F 84% 30.02 in 10.0 mi Calm Calm - N/A   Clear
4:55 AM 24.6 °F - 20.3 °F 84% 30.02 in 10.0 mi Calm Calm - N/A   Clear
5:15 AM 23.4 °F 18.9 °F 19.8 °F 86% 30.02 in 10.0 mi West 3.5 mph - N/A   Clear
5:35 AM 24.6 °F - 20.7 °F 85% 30.02 in 10.0 mi Calm Calm - N/A   Clear
5:55 AM 23.5 °F - 19.4 °F 84% 30.03 in 10.0 mi Calm Calm - N/A   Clear
6:15 AM 23.0 °F - 19.2 °F 85% 30.03 in 10.0 mi Calm Calm - N/A   Clear
6:35 AM 21.9 °F 17.2 °F 18.5 °F 87% 30.03 in 10.0 mi West 3.5 mph - N/A   Clear
6:55 AM 22.6 °F 18.0 °F 18.9 °F 85% 30.03 in 10.0 mi West 3.5 mph - N/A   Clear
7:15 AM 22.5 °F - 19.0 °F 87% 30.04 in 10.0 mi Calm Calm - N/A   Clear
7:35 AM 21.7 °F - 18.5 °F 87% 30.04 in 10.0 mi Calm Calm - N/A   Clear
7:55 AM 21.6 °F - 18.3 °F 87% 30.04 in 7.0 mi Calm Calm - N/A   Clear
8:15 AM 24.1 °F 19.7 °F 20.8 °F 87% 30.04 in 10.0 mi NNW 3.5 mph - N/A   Clear
8:35 AM 26.8 °F 21.4 °F 22.5 °F 84% 30.05 in 10.0 mi NNW 4.6 mph - N/A   Clear
8:55 AM 28.2 °F 24.4 °F 23.0 °F 81% 30.06 in 10.0 mi NNW 3.5 mph - N/A   Clear
9:15 AM 29.1 °F - 23.4 °F 79% 30.07 in 10.0 mi Calm Calm - N/A   Clear
9:35 AM 30.6 °F - 23.9 °F 76% 30.07 in 10.0 mi Calm Calm - N/A   Clear
9:55 AM 31.5 °F - 24.1 °F 74% 30.08 in 10.0 mi Calm Calm - N/A   Clear
10:15 AM 33.1 °F 30.0 °F 23.9 °F 69% 30.08 in 10.0 mi NNW 3.5 mph - N/A   Scattered Clouds
10:35 AM 34.7 °F 29.6 °F 23.5 °F 64% 30.08 in 10.0 mi North 5.8 mph - N/A   Clear
10:55 AM 35.1 °F 29.3 °F 22.8 °F 61% 30.09 in 10.0 mi ENE 6.9 mph - N/A   Clear
11:15 AM 34.3 °F 29.2 °F 22.5 °F 62% 30.08 in 10.0 mi NE 5.8 mph - N/A   Scattered Clouds
11:35 AM 34.9 °F - 22.5 °F 61% 30.08 in 10.0 mi Calm Calm - N/A   Mostly Cloudy
11:55 AM 34.7 °F 31.8 °F 22.1 °F 60% 30.08 in 10.0 mi North 3.5 mph - N/A   Overcast
12:15 PM 36.5 °F 33.9 °F 21.9 °F 56% 30.09 in 10.0 mi WNW 3.5 mph - N/A   Overcast
12:35 PM 36.0 °F - 21.6 °F 56% 30.09 in 10.0 mi Calm Calm - N/A   Overcast
12:55 PM 37.4 °F 32.1 °F 22.1 °F 54% 30.08 in 10.0 mi WNW 6.9 mph - N/A   Overcast
1:15 PM 39.6 °F 34.7 °F 23.5 °F 53% 30.09 in 10.0 mi WNW 6.9 mph - N/A   Mostly Cloudy
1:35 PM 37.9 °F 34.4 °F 21.7 °F 52% 30.09 in 10.0 mi WNW 4.6 mph - N/A   Overcast
2:15 PM 37.8 °F 31.8 °F 22.6 °F 54% 30.09 in 10.0 mi WNW 8.1 mph - N/A   Overcast
2:35 PM 38.3 °F 33.9 °F 22.5 °F 53% 30.08 in 10.0 mi WNW 5.8 mph - N/A   Mostly Cloudy
2:55 PM 38.3 °F 32.5 °F 22.8 °F 54% 30.08 in 10.0 mi NNW 8.1 mph - N/A   Mostly Cloudy
3:15 PM 38.7 °F 32.9 °F 22.8 °F 53% 30.07 in 10.0 mi NW 8.1 mph - N/A   Scattered Clouds
3:35 PM 38.3 °F 33.9 °F 22.5 °F 53% 30.07 in 10.0 mi West 5.8 mph - N/A   Clear
3:55 PM 40.3 °F 36.3 °F 23.0 °F 50% 30.07 in 10.0 mi WNW 5.8 mph - N/A   Mostly Cloudy
4:15 PM 38.3 °F 33.9 °F 22.1 °F 52% 30.06 in 10.0 mi NNW 5.8 mph - N/A   Scattered Clouds
4:35 PM 40.1 °F 35.3 °F 21.7 °F 48% 30.07 in 10.0 mi West 6.9 mph - N/A   Mostly Cloudy
4:55 PM 40.3 °F 36.3 °F 22.1 °F 48% 30.06 in 10.0 mi WNW 5.8 mph - N/A   Mostly Cloudy
5:15 PM 39.7 °F 37.6 °F 21.9 °F 49% 30.07 in 10.0 mi WNW 3.5 mph - N/A   Scattered Clouds
5:35 PM 40.1 °F 36.9 °F 21.2 °F 47% 30.07 in 10.0 mi SW 4.6 mph - N/A   Scattered Clouds
5:55 PM 40.3 °F 36.3 °F 21.6 °F 47% 30.05 in 10.0 mi WNW 5.8 mph - N/A   Clear
6:15 PM 39.6 °F 36.3 °F 22.1 °F 50% 30.04 in 10.0 mi NW 4.6 mph - N/A   Clear
6:35 PM 39.9 °F 37.8 °F 21.2 °F 47% 30.04 in 10.0 mi North 3.5 mph - N/A   Clear
6:55 PM 39.2 °F 35.9 °F 21.7 °F 50% 30.05 in 10.0 mi NW 4.6 mph - N/A   Clear
7:15 PM 38.1 °F 34.6 °F 23.4 °F 55% 30.04 in 10.0 mi ENE 4.6 mph - N/A   Clear
7:35 PM 36.0 °F 33.3 °F 23.9 °F 62% 30.04 in 10.0 mi East 3.5 mph - N/A   Clear
7:55 PM 34.5 °F - 23.9 °F 65% 30.04 in 10.0 mi Calm Calm - N/A   Clear
8:15 PM 33.6 °F - 23.4 °F 66% 30.05 in 10.0 mi Calm Calm - N/A   Clear
8:35 PM 32.0 °F - 22.8 °F 69% 30.06 in 10.0 mi Calm Calm - N/A   Clear
8:55 PM 30.6 °F - 22.3 °F 71% 30.06 in 7.0 mi Calm Calm - N/A   Clear
9:15 PM 29.5 °F - 22.8 °F 76% 30.07 in 7.0 mi Calm Calm - N/A   Clear
9:35 PM 29.1 °F 24.1 °F 23.2 °F 78% 30.07 in 10.0 mi NNE 4.6 mph - N/A   Clear
9:55 PM 29.8 °F 24.9 °F 23.2 °F 76% 30.07 in 10.0 mi North 4.6 mph - N/A   Clear
10:15 PM 31.5 °F 26.8 °F 22.6 °F 70% 30.06 in 10.0 mi North 4.6 mph - N/A   Clear
10:35 PM 31.1 °F - 22.3 °F 70% 30.06 in 10.0 mi Calm Calm - N/A   Clear
10:55 PM 30.9 °F - 22.1 °F 70% 30.05 in 10.0 mi Calm Calm - N/A   Clear
11:15 PM 29.3 °F - 21.9 °F 74% 30.05 in 10.0 mi Calm Calm - N/A   Clear
11:35 PM 27.5 °F - 21.6 °F 78% 30.04 in 5.0 mi Calm Calm - N/A   Haze
11:55 PM 27.0 °F - 21.9 °F 81% 30.03 in 10.0 mi Calm Calm - N/A   Scattered Clouds